Temperature
17 17 17 17 17 17 17 17 17 17 17 17 17 17 17 17 17 17 17 17 17 17 17 17 17 17 17 17 17 17 17 16 16 16 16 16 16 16 16 16 16 16 16
17 17 17 17 17 17 17 17 17 17 17 17 17 17 17 17 17 17 17 17 17 17 17 17 17 17 17 17 17 17 17 17 17 17 16 16 16 16 16 16 16 16 16
17 17 17 17 17 17 17 17 17 17 17 17 17 17 17 17 17 17 17 17 17 17 17 17 17 17 17 17 17 17 17 17 17 17 17 16 16 16 16 16 16 16 16
17 18 17 17 17 17 17 17 17 17 17 17 17 17 17 17 17 17 17 17 17 17 17 17 17 17 17 17 17 17 17 17 17 17 17 16 16 16 16 16 16 16 16
18 18 18 18 17 17 17 17 17 17 17 17 17 17 17 17 17 17 17 17 17 17 17 17 17 17 17 17 17 17 17 17 17 17 17 17 16 16 16 16 16 16 16
18 18 18 18 17 17 17 17 17 17 17 17 18 18 18 18 18 18 18 18 17 17 17 17 17 17 17 17 17 17 17 17 17 17 17 17 17 16 16 16 16 16 16
18 18 18 18 18 17 17 17 17 17 17 17 17 18 18 18 18 18 18 18 18 18 17 17 17 17 17 17 17 17 17 17 17 17 17 17 17 17 16 16 16 16 16
18 18 18 18 18 18 18 17 17 17 17 17 17 18 18 19 18 18 18 18 18 18 18 18 17 17 17 17 17 17 17 17 17 17 17 17 17 17 17 16 16 16 16
18 18 18 18 18 18 18 18 18 17 17 17 17 17 18 19 19 19 18 18 18 18 18 18 17 17 17 17 17 17 17 17 17 17 17 17 17 17 17 16 16 16 16
18 18 18 18 18 18 18 18 18 17 17 17 17 17 17 18 18 18 19 18 18 18 18 18 18 17 17 17 17 17 17 17 17 17 17 17 17 17 16 16 16 16 16
18 18 18 18 18 18 18 18 18 18 17 17 17 17 17 17 17 17 18 18 18 18 18 17 17 17 17 17 17 17 17 17 17 17 17 17 17 16 16 16 16 16 16
18 18 18 18 18 18 18 18 18 18 17 17 17 17 17 17 17 17 18 18 18 18 17 17 17 17 17 17 17 17 17 17 17 17 17 17 17 16 16 16 16 16 16
18 18 18 18 18 18 18 18 18 18 17 17 17 17 17 17 17 17 17 17 17 18 17 17 17 17 17 17 17 16 16 17 17 17 17 17 17 16 16 16 16 16 16
19 19 19 19 19 18 18 18 17 17 17 17 17 17 17 17 17 17 17 17 17 18 17 17 17 17 16 16 16 16 16 16 16 16 16 16 16 16 16 16 16 16 16
19 19 19 19 19 18 18 18 18 17 17 17 17 17 17 17 17 17 16 16 16 17 17 17 17 16 16 16 16 16 16 16 16 16 16 16 16 16 16 16 16 15 15
19 19 19 19 19 18 18 18 17 17 17 17 17 17 17 17 16 16 16 16 16 16 16 17 16 16 16 16 16 15 15 15 16 16 16 16 16 16 16 15 15 15 15
19 19 19 18 18 18 18 18 17 17 17 17 17 16 16 17 16 16 16 16 16 16 16 16 16 16 15 15 15 15 15 15 15 15 15 15 15 15 15 15 15 15 15
19 19 18 18 18 18 18 17 17 17 17 17 16 16 16 16 16 16 15 15 15 15 15 15 15 15 15 15 15 15 15 15 15 15 15 15 15 15 15 15 14 14 14
19 19 18 18 18 18 18 17 17 17 17 16 16 16 16 16 15 15 15 15 15 15 15 15 15 15 14 14 14 14 14 14 14 14 14 14 14 14 14 14 14 14 14
19 19 18 18 18 18 17 17 17 17 17 17 17 16 16 16 16 15 15 15 15 15 15 15 14 14 14 14 14 14 14 14 14 14 14 14 14 14 14 14 14 14 13
19 18 18 18 18 18 17 17 17 17 17 16 16 16 16 16 16 15 15 15 14 14 14 14 14 14 14 13 13 13 13 13 13 13 13 13 13 13 13 13 13 13 13
18 18 18 18 18 17 17 17 17 17 16 16 16 16 16 16 16 15 15 15 14 14 14 14 14 13 13 13 13 13 13 13 13 13 13 13 13 12 12 12 12 13 12
18 18 17 17 17 17 17 17 17 17 16 16 16 15 15 15 15 15 15 15 14 14 14 13 13 13 13 13 13 13 13 12 12 12 12 12 12 12 12 12 12 12 12
18 18 17 17 17 17 17 17 17 16 16 16 15 15 15 15 14 14 14 14 14 13 13 13 13 13 13 13 13 12 12 12 12 12 12 12 12 11 11 11 11 12 12
18 17 17 17 17 17 17 17 16 16 16 15 15 15 14 14 14 14 14 13 13 13 13 13 13 13 13 13 12 12 12 12 12 12 11 11 11 11 11 11 11 11 11
17 17 17 17 16 16 16 16 16 15 15 15 15 15 14 14 14 14 13 13 13 12 12 13 13 12 12 12 12 12 12 12 12 12 11 11 11 11 11 11 10 10 10
Wind_Speed
3 2 2 2 3 3 4 4 4 3 3 5 5 5 5 5 5 5 5 10 11 11 11 12 12 12 13 13 12 13 13 12 12 12 11 11 11 11 10 10 9 9 9
3 3 3 2 3 3 3 3 4 3 4 3 4 5 6 6 6 6 6 9 12 12 12 12 13 13 13 14 13 13 14 14 14 14 13 13 12 12 11 11 10 10 10
4 3 3 3 3 3 4 4 3 3 4 5 5 5 6 6 6 7 7 7 9 14 15 14 14 14 15 15 15 15 15 15 15 15 15 15 14 13 13 12 12 12 11
5 4 3 3 3 3 3 3 4 4 4 4 4 5 5 5 7 8 8 8 7 8 13 16 15 15 15 16 16 16 17 17 17 17 17 16 16 16 15 15 14 14 13
6 5 4 3 4 3 3 4 3 4 4 4 5 5 5 6 6 7 7 8 8 8 8 12 16 16 16 16 16 17 17 18 18 18 18 18 18 18 17 17 16 16 15
6 6 5 5 5 4 4 3 3 3 4 4 5 4 5 6 6 6 7 8 8 10 10 9 11 14 18 17 17 18 18 19 19 19 19 19 19 19 19 19 18 18 17
6 6 5 5 5 5 5 5 5 5 4 3 4 4 5 7 6 6 7 6 7 8 9 9 10 9 10 19 20 19 19 19 19 20 20 20 20 20 20 20 20 19 19
6 6 6 6 6 5 5 5 5 5 4 4 3 4 4 4 5 6 5 6 7 7 8 9 9 9 10 9 12 19 20 19 19 19 19 20 20 20 20 20 21 21 20
6 6 6 6 5 6 5 5 6 6 5 5 5 4 4 3 2 3 5 5 6 5 6 7 8 9 11 11 10 13 17 18 18 18 19 19 20 21 21 21 21 21 21
6 6 5 5 5 5 4 6 5 5 5 5 4 5 5 4 4 3 4 5 5 6 6 6 7 8 9 10 9 9 11 14 16 16 17 18 19 20 21 21 21 21 21
6 6 5 5 5 5 5 5 4 5 5 5 5 4 5 5 7 6 6 5 5 5 5 6 6 7 7 9 8 8 9 12 14 15 15 16 17 18 19 20 21 21 21
5 6 6 5 5 4 4 5 5 6 5 5 5 5 5 5 5 6 7 7 6 5 5 5 6 6 6 7 7 4 6 9 11 12 13 14 15 16 17 18 19 19 20
5 5 5 5 4 4 5 5 5 5 5 6 6 5 5 6 6 6 7 7 7 6 5 6 5 5 6 5 4 3 6 7 9 10 11 12 13 13 14 15 16 17 17
4 4 5 5 5 5 5 4 5 4 4 5 6 5 5 6 6 6 7 7 7 6 5 5 4 4 4 5 3 4 5 6 7 8 9 9 10 11 11 12 12 13 13
5 6 6 5 5 4 4 4 3 4 3 4 5 4 5 4 4 5 6 6 7 7 7 4 4 4 3 5 3 5 6 4 6 6 7 7 8 9 9 9 10 10 10
5 5 5 5 5 4 4 4 4 3 3 3 3 4 4 4 4 4 5 6 6 7 6 5 4 4 4 5 3 6 6 4 5 5 5 6 7 8 8 8 8 8 8
7 6 6 5 5 5 4 4 4 3 3 3 3 3 4 4 4 4 4 5 5 5 7 6 4 4 4 5 4 5 5 5 3 5 4 4 5 5 6 6 6 6 7
7 7 7 6 5 5 4 4 4 3 3 3 3 3 4 3 4 4 4 5 5 5 6 7 5 4 4 4 4 4 4 3 3 3 4 4 3 4 4 4 4 4 4
8 7 7 6 6 5 4 4 4 4 3 3 3 3 3 3 4 4 4 5 5 5 5 6 5 4 3 3 3 3 3 2 3 2 5 5 5 4 4 3 3 2 2
8 7 7 6 6 5 5 5 5 4 4 3 3 3 3 3 3 4 4 4 5 5 5 5 4 3 3 3 3 3 3 2 2 2 0 2 5 7 6 5 4 2 2
8 7 7 6 6 5 4 4 5 4 3 3 2 2 2 1 3 4 4 4 4 5 4 4 4 4 3 3 3 3 3 3 1 1 2 2 3 3 4 5 4 2 1
7 7 7 6 6 4 4 3 3 4 3 3 3 2 2 1 1 1 2 4 5 5 5 4 3 3 4 3 3 4 3 3 2 1 2 2 1 1 1 2 4 3 2
7 6 6 6 5 4 5 4 4 4 3 3 2 2 3 1 1 2 2 3 2 1 3 5 4 4 4 4 4 4 3 3 3 2 3 2 1 1 1 3 6 5 3
7 7 7 7 6 5 6 5 4 5 3 2 2 2 2 1 1 2 3 2 1 1 1 2 3 4 4 4 4 4 3 3 2 0 2 2 2 2 2 2 7 6 5
7 7 7 7 6 5 6 6 5 5 4 4 3 1 1 1 3 4 3 3 2 1 1 0 2 3 3 3 4 3 2 2 2 1 1 3 2 2 2 2 4 7 6
7 7 6 6 6 5 6 6 5 4 4 4 3 3 2 1 1 3 3 3 3 3 2 1 1 2 2 1 2 2 3 3 2 1 0 2 2 2 2 1 1 3 4
Wind_Direction
183 167 157 161 179 170 173 184 196 188 196 201 209 210 219 226 221 220 190 183 202 213 217 216 215 214 213 212 213 214 216 215 214 216 217 216 216 216 216 218 219 216 212
190 187 177 182 194 194 195 198 192 198 217 219 220 222 229 227 220 227 226 197 202 212 219 220 219 218 219 219 218 218 220 223 222 221 219 220 221 220 222 222 222 218 217
205 203 192 197 197 193 193 210 214 220 222 219 222 228 230 231 227 227 236 233 211 206 213 220 222 222 222 223 222 223 225 226 226 225 223 222 220 221 223 225 224 222 222
216 219 215 213 198 210 207 213 222 227 235 237 231 237 236 226 232 231 234 234 237 227 209 212 218 223 225 227 226 225 227 227 227 227 225 222 222 224 224 225 225 225 226
218 221 224 221 215 218 225 235 216 234 236 248 245 231 239 235 233 235 235 237 234 237 233 203 209 219 225 228 229 227 228 228 227 228 226 226 227 227 226 226 227 227 229
221 223 224 220 226 225 232 237 241 241 250 252 264 258 248 245 236 240 241 236 232 234 237 235 220 219 219 225 229 229 229 229 227 226 226 228 229 229 228 227 228 230 231
225 224 234 218 228 230 234 235 238 236 242 246 260 258 245 239 240 237 239 244 238 237 241 238 238 240 219 217 224 229 231 232 231 229 228 228 230 231 229 228 228 230 230
231 228 228 228 226 229 228 233 234 248 248 231 248 264 256 230 222 231 229 230 242 240 240 239 237 237 247 238 219 218 227 233 235 233 230 229 229 230 229 229 229 229 229
232 239 234 236 233 234 227 228 230 240 252 246 239 255 267 266 273 225 228 233 236 242 246 244 240 239 239 241 239 215 218 226 233 236 235 232 231 229 229 230 230 230 229
230 231 232 233 236 241 236 238 231 241 252 255 246 245 258 281 274 268 236 228 233 242 254 256 254 245 241 242 235 233 218 224 230 236 239 238 235 232 230 230 231 231 231
220 227 226 229 232 241 242 249 247 247 245 250 256 256 252 247 248 257 268 261 251 248 249 251 256 258 252 247 245 236 215 221 228 234 241 243 243 240 236 234 235 234 234
217 222 224 223 231 243 244 246 244 241 248 255 260 259 258 256 256 257 267 269 267 265 260 264 262 257 253 251 245 229 212 221 229 234 240 244 246 247 243 238 237 238 240
216 212 221 218 229 234 244 248 244 252 250 253 254 257 258 261 267 266 268 276 278 273 262 260 259 261 259 255 249 208 218 225 233 237 241 244 243 244 243 242 240 241 241
224 199 207 216 225 233 239 239 249 248 252 258 260 259 260 260 264 264 267 274 279 275 263 263 266 259 267 264 267 237 240 216 227 235 238 240 241 241 239 240 241 241 240
217 202 208 214 221 224 230 236 246 251 254 257 267 262 264 271 269 270 268 265 270 279 282 267 264 261 257 262 260 260 259 226 220 231 234 239 243 241 235 233 235 236 239
216 208 209 212 212 211 211 221 232 229 243 254 269 283 277 275 275 274 276 273 265 270 279 289 280 281 282 278 255 269 261 227 218 224 232 238 243 243 235 232 230 231 234
206 207 210 210 212 215 212 212 232 231 242 255 265 269 274 285 284 281 279 278 276 274 274 286 289 291 283 279 283 282 272 257 226 191 212 227 234 234 229 227 226 228 233
205 204 204 206 209 211 213 218 230 237 246 254 263 272 278 279 277 286 288 286 286 282 277 282 286 283 280 278 284 283 281 266 257 157 167 186 200 198 196 200 210 222 231
200 198 199 203 205 205 209 219 227 234 243 251 259 267 278 286 285 287 286 288 286 282 280 279 283 292 287 291 289 277 274 276 264 173 162 167 168 166 162 164 175 184 199
198 197 196 197 199 202 207 214 218 223 231 237 249 258 269 280 284 285 279 283 289 288 284 279 285 288 293 299 290 290 282 266 266 263 218 182 168 164 153 152 150 154 162
201 196 195 195 198 201 208 207 212 212 212 223 238 255 274 358 357 323 310 306 300 291 289 290 294 297 307 315 305 292 290 280 255 290 275 235 192 181 161 154 144 135 153
196 193 192 188 191 200 134 148 224 206 206 218 230 245 234 201 186 247 328 330 329 304 301 297 291 295 303 305 308 296 296 294 289 320 292 288 277 241 165 126 113 121 138
183 186 187 188 189 176 148 166 212 213 212 222 227 243 262 254 238 261 218 216 239 304 311 302 301 304 307 313 307 302 304 303 309 331 298 287 308 289 250 120 134 145 150
183 187 188 190 187 176 158 169 192 200 203 206 218 238 257 270 326 309 274 257 262 289 299 283 302 308 321 320 301 280 276 270 269 291 295 279 270 273 256 165 157 167 179
190 190 190 191 190 173 157 169 192 191 193 199 201 198 236 224 41 329 276 267 267 272 171 345 338 320 325 322 311 292 284 269 286 274 320 297 286 275 258 222 168 176 188
191 188 185 186 186 176 159 169 203 204 198 195 183 170 105 65 54 310 265 263 264 272 283 260 238 239 249 233 250 285 296 289 299 292 13 294 297 289 268 239 204 192 199
Height
1560 1560 1560 1561 1562 1563 1564 1564 1565 1566 1566 1567 1568 1569 1569 1570 1570 1571 1571 1570 1570 1571 1571 1571 1571 1572 1572 1573 1574 1575 1575 1576 1577 1578 1578 1579 1580 1581 1581 1582 1582 1583 1583
1560 1560 1560 1561 1562 1562 1564 1564 1565 1565 1566 1566 1567 1568 1568 1569 1569 1569 1570 1570 1569 1569 1569 1570 1570 1570 1571 1571 1572 1573 1573 1574 1575 1576 1577 1577 1578 1579 1579 1580 1581 1581 1581
1559 1560 1561 1561 1562 1562 1562 1563 1564 1564 1565 1566 1566 1566 1567 1567 1568 1568 1568 1569 1569 1568 1568 1568 1568 1568 1569 1569 1570 1570 1571 1572 1573 1574 1574 1575 1576 1577 1577 1578 1578 1579 1579
1559 1559 1560 1561 1561 1561 1562 1562 1563 1563 1564 1564 1565 1565 1566 1566 1566 1566 1566 1566 1567 1567 1566 1566 1566 1566 1566 1567 1567 1568 1569 1569 1570 1571 1572 1572 1573 1574 1575 1575 1576 1576 1577
1558 1559 1559 1560 1560 1561 1561 1562 1562 1562 1563 1563 1563 1563 1564 1564 1564 1564 1564 1564 1564 1564 1564 1563 1563 1563 1563 1564 1564 1565 1565 1566 1567 1568 1568 1569 1570 1571 1571 1572 1573 1573 1574
1557 1557 1558 1558 1559 1560 1560 1560 1560 1560 1561 1561 1562 1562 1562 1562 1562 1562 1562 1562 1562 1561 1562 1562 1561 1561 1560 1561 1561 1562 1562 1563 1563 1564 1565 1566 1566 1567 1568 1568 1569 1569 1570
1555 1556 1557 1557 1557 1558 1558 1558 1559 1559 1559 1559 1560 1560 1560 1559 1559 1559 1559 1559 1559 1559 1559 1558 1558 1558 1558 1557 1558 1558 1558 1559 1560 1560 1561 1562 1562 1563 1564 1564 1565 1566 1566
1553 1555 1555 1555 1556 1556 1556 1556 1556 1557 1557 1558 1558 1558 1557 1558 1556 1556 1556 1555 1555 1556 1555 1555 1555 1554 1554 1555 1554 1554 1554 1555 1555 1556 1557 1557 1558 1559 1559 1560 1561 1562 1562
1551 1552 1552 1553 1553 1554 1554 1554 1554 1554 1555 1555 1555 1556 1555 1554 1554 1554 1553 1553 1552 1552 1552 1552 1551 1551 1550 1550 1550 1550 1550 1550 1551 1552 1552 1553 1554 1554 1555 1556 1556 1557 1557
1548 1550 1550 1551 1551 1552 1552 1552 1552 1552 1552 1553 1553 1552 1553 1552 1552 1551 1551 1550 1549 1549 1549 1548 1548 1547 1546 1546 1545 1545 1545 1545 1546 1547 1547 1548 1549 1549 1550 1550 1551 1552 1552
1546 1547 1548 1549 1549 1550 1550 1549 1549 1549 1550 1550 1550 1550 1550 1549 1549 1549 1547 1547 1546 1546 1545 1544 1544 1544 1543 1542 1542 1541 1540 1541 1541 1542 1542 1543 1543 1544 1545 1545 1546 1546 1547
1544 1545 1546 1546 1547 1547 1547 1547 1546 1547 1547 1546 1546 1546 1547 1546 1546 1545 1544 1543 1543 1542 1541 1540 1540 1540 1539 1538 1538 1537 1536 1536 1536 1536 1537 1538 1538 1539 1539 1540 1540 1541 1541
1543 1543 1544 1544 1544 1544 1544 1544 1544 1544 1544 1543 1543 1543 1543 1543 1543 1542 1541 1540 1539 1538 1537 1537 1536 1535 1535 1535 1534 1532 1532 1531 1532 1532 1532 1532 1533 1533 1534 1534 1534 1535 1535
1541 1540 1540 1541 1541 1541 1542 1542 1542 1542 1541 1541 1541 1540 1540 1539 1539 1538 1538 1537 1535 1534 1533 1533 1532 1532 1531 1530 1529 1528 1528 1527 1527 1527 1527 1527 1528 1528 1528 1528 1529 1529 1530
1538 1538 1538 1538 1539 1539 1539 1539 1539 1539 1539 1539 1539 1538 1537 1537 1536 1535 1534 1534 1534 1531 1530 1529 1529 1528 1527 1526 1525 1524 1524 1523 1523 1523 1522 1522 1522 1522 1523 1523 1523 1524 1524
1536 1536 1536 1536 1536 1537 1536 1536 1537 1536 1536 1536 1535 1535 1534 1534 1533 1532 1531 1530 1530 1529 1527 1526 1525 1525 1523 1523 1522 1521 1520 1519 1519 1518 1518 1518 1517 1517 1517 1518 1518 1518 1518
1533 1533 1534 1534 1534 1535 1535 1534 1535 1534 1534 1534 1533 1532 1532 1531 1530 1530 1529 1528 1527 1526 1524 1523 1522 1521 1519 1519 1518 1517 1517 1516 1515 1514 1514 1514 1513 1513 1512 1513 1513 1513 1513
1530 1531 1531 1532 1532 1533 1533 1532 1532 1532 1532 1531 1531 1530 1529 1529 1528 1527 1526 1525 1524 1523 1522 1520 1519 1518 1517 1516 1515 1514 1513 1513 1512 1511 1510 1510 1509 1508 1508 1508 1508 1508 1508
1527 1528 1528 1529 1530 1530 1530 1530 1530 1530 1530 1529 1528 1528 1527 1526 1525 1524 1523 1523 1522 1521 1519 1518 1517 1515 1514 1513 1512 1511 1511 1509 1509 1508 1507 1506 1505 1505 1504 1504 1504 1504 1504
1524 1525 1526 1526 1527 1527 1528 1528 1528 1527 1527 1527 1526 1525 1525 1524 1523 1522 1521 1520 1519 1518 1516 1515 1514 1513 1512 1511 1510 1509 1508 1507 1506 1506 1505 1504 1503 1502 1501 1501 1501 1501 1500
1521 1522 1522 1523 1524 1524 1525 1525 1525 1525 1524 1524 1523 1523 1522 1521 1520 1519 1519 1518 1517 1516 1515 1514 1512 1511 1510 1508 1508 1506 1506 1505 1504 1503 1503 1502 1501 1500 1499 1498 1498 1498 1497
1517 1518 1519 1520 1520 1521 1522 1522 1522 1522 1521 1521 1520 1520 1519 1518 1517 1516 1515 1515 1514 1513 1512 1512 1511 1509 1508 1507 1505 1504 1504 1503 1502 1501 1500 1500 1499 1499 1498 1497 1496 1495 1495
1512 1513 1514 1515 1517 1517 1518 1518 1519 1518 1518 1518 1518 1517 1517 1516 1514 1514 1512 1512 1511 1510 1510 1509 1508 1507 1506 1505 1503 1502 1501 1500 1499 1499 1498 1498 1497 1496 1495 1494 1493 1493 1492
1508 1509 1509 1510 1512 1513 1513 1514 1515 1515 1515 1515 1515 1514 1514 1513 1512 1511 1511 1510 1509 1508 1507 1506 1506 1505 1504 1502 1501 1501 1499 1498 1497 1497 1496 1496 1495 1494 1493 1492 1491 1490 1490
1503 1504 1506 1507 1508 1509 1509 1510 1511 1511 1511 1511 1511 1511 1511 1510 1509 1509 1508 1508 1507 1506 1505 1504 1503 1502 1501 1500 1499 1498 1497 1497 1496 1496 1495 1494 1493 1492 1491 1490 1489 1488 1487
1500 1501 1502 1503 1504 1505 1506 1506 1507 1508 1508 1508 1508 1508 1507 1507 1507 1506 1506 1505 1504 1504 1503 1502 1501 1500 1499 1498 1497 1496 1495 1495 1495 1494 1493 1492 1491 1490 1490 1489 1487 1486 1485